Location: Clanezzo
(45.7500°N, 9.6000°E)
Time: 02:53:04
(UTC+00:00)

Oscar 19 - Visible Passes

Search period start: 29 June 2022 00:00
Search period end: 09 July 2022 00:00
Orbit: 772 x 790 km, 98.8° (Epoch: 28 June)

Date Brightness Start Highest point End Pass type
(mag) Time Alt. Az. Time Alt. Az. Time Alt. Az.
29 Jun 13.1 01:33:15 10° ENE 01:35:47 14° E 01:38:19 10° ESE visible
30 Jun 11.3 02:38:37 10° NNE 02:43:38 53° E 02:48:37 10° S visible
01 Jul 12.4 02:07:02 10° NE 02:11:25 28° E 02:15:46 10° SSE visible
02 Jul 13.1 01:36:15 10° NE 01:39:03 15° E 01:41:50 10° ESE visible
03 Jul 11.3 02:41:48 10° NNE 02:46:52 57° E 02:51:53 10° S visible
04 Jul 12.3 02:10:12 10° NE 02:14:40 29° E 02:19:06 10° SSE visible
05 Jul 13.1 01:39:18 10° NE 01:42:18 16° E 01:45:18 10° SE visible
06 Jul 11.2 02:45:01 10° NNE 02:50:05 60° ESE 02:55:09 10° S visible
07 Jul 12.2 02:13:21 10° NNE 02:17:54 31° E 02:22:25 10° SSE visible
08 Jul 13.0 01:42:21 10° NE 01:45:34 16° E 01:48:45 10° SE visible
